Weather History for KDAB - March, 2014

Change the Weather History Date:

Thursday, March 27, 2014

  Actual Average Record
Temperature  
Mean Temperature 58 °F 66 °F  
Max Temperature 69 °F 76 °F 91 °F (1994)
Min Temperature 47 °F 56 °F 39 °F (1955)
Degree Days  
Heating Degree Days 7 2  
Month to date heating degree days 75 88  
Since 1 July heating degree days 588 770  
Cooling Degree Days 0 3  
Month to date cooling degree days 45 66  
Year to date cooling degree days 129 131  
Growing Degree Days 8 (Base 50)    
Moisture  
Dew Point 51 °F    
Average Humidity 73    
Maximum Humidity 90    
Minimum Humidity 55    
Precipitation  
Precipitation 0.00 in 0.13 in 2.81 in (2003)
Month to date precipitation 3.21 3.70  
Year to date precipitation 9.79 9.22  
Sea Level Pressure  
Sea Level Pressure 30.30 in    
Wind  
Wind Speed 4 mph (East)    
Max Wind Speed 12 mph    
Max Gust Speed 17 mph    
Visibility 10 miles    
Events      
T = Trace of Precipitation, MM = Missing Value Source: NWS Daily Summary

Daily Weather History Graph

Daily Weather History Graph

Search for Another Location

Airport or City:

Trip Planner

Search our weather history database for the weather conditions in past years. The results will help you decide how hot, cold, wet, or windy it might be!

Date:

Astronomy

Mar. 27, 2014 Rise Set
Actual Time 7:19 AM EDT 7:39 PM EDT
Civil Twilight 6:56 AM EDT 8:03 PM EDT
Nautical Twilight 6:28 AM EDT 8:31 PM EDT
Astronomical Twilight 6:00 AM EDT 8:59 PM EDT
Moon 4:54 AM EDT 4:38 PM EDT
Length of Visible Light 13h 07m
Length of Day
12h 19m
Waning Crescent, 13% of the Moon is Illuminated
Mar 27
Waning Crescent
Mar 30
New
Apr 7
First Quarter
Apr 15
Full
Apr 22
Last Quarter

Hourly Weather History & Observations

Time (EDT) Temp. Dew Point Humidity Pressure Visibility Wind Dir Wind Speed Gust Speed Precip Events Conditions
12:53 AM 51.1 °F 41.0 °F 68% 30.30 in 10.0 mi ENE 3.5 mph - N/A   Partly Cloudy
1:53 AM 48.0 °F 42.1 °F 80% 30.30 in 10.0 mi Calm Calm - N/A   Mostly Cloudy
2:53 AM 51.1 °F 43.0 °F 74% 30.28 in 10.0 mi NNW 3.5 mph - N/A   Scattered Clouds
3:53 AM 50.0 °F 46.0 °F 86% 30.27 in 10.0 mi Calm Calm - N/A   Overcast
4:53 AM 53.1 °F 46.9 °F 80% 30.26 in 10.0 mi Calm Calm - N/A   Overcast
5:53 AM 53.1 °F 48.0 °F 83% 30.27 in 10.0 mi Calm Calm - N/A   Mostly Cloudy
6:53 AM 53.1 °F 48.0 °F 83% 30.27 in 10.0 mi Calm Calm - N/A   Mostly Cloudy
7:53 AM 55.0 °F 50.0 °F 83% 30.30 in 4.0 mi Calm Calm - N/A   Haze
8:53 AM 62.1 °F 51.1 °F 67% 30.32 in 10.0 mi East 3.5 mph - N/A   Overcast
9:53 AM 64.0 °F 51.1 °F 63% 30.34 in 10.0 mi East 6.9 mph - N/A   Overcast
10:53 AM 64.9 °F 51.1 °F 61% 30.36 in 10.0 mi East 4.6 mph - N/A   Overcast
11:53 AM 66.0 °F 51.1 °F 59% 30.34 in 10.0 mi East 6.9 mph - N/A   Overcast
12:53 PM 64.9 °F 51.1 °F 61% 30.35 in 10.0 mi East 5.8 mph - N/A   Overcast
1:53 PM 66.9 °F 52.0 °F 59% 30.34 in 10.0 mi East 10.4 mph - N/A   Mostly Cloudy
2:53 PM 68.0 °F 53.1 °F 59% 30.34 in 10.0 mi ESE 6.9 mph - N/A   Overcast
3:53 PM 66.9 °F 54.0 °F 63% 30.30 in 10.0 mi ESE 8.1 mph - N/A   Overcast
4:53 PM 68.0 °F 52.0 °F 56% 30.28 in 10.0 mi ESE 9.2 mph - N/A   Overcast
5:53 PM 69.1 °F 55.0 °F 61% 30.28 in 10.0 mi ESE 11.5 mph 16.1 mph N/A   Mostly Cloudy
6:53 PM 66.9 °F 53.1 °F 61% 30.28 in 10.0 mi Variable 5.8 mph - N/A   Mostly Cloudy
7:53 PM 64.9 °F 54.0 °F 68% 30.27 in 10.0 mi SE 3.5 mph - N/A   Mostly Cloudy
8:53 PM 63.0 °F 55.0 °F 75% 30.26 in 10.0 mi East 3.5 mph - N/A   Mostly Cloudy
9:53 PM 61.0 °F 57.0 °F 87% 30.28 in 10.0 mi Calm Calm - N/A   Overcast
10:53 PM 62.1 °F 57.0 °F 84% 30.26 in 10.0 mi Calm Calm - N/A   Overcast
11:53 PM 64.0 °F 59.0 °F 84% 30.25 in 10.0 mi Calm Calm - N/A   Overcast